TimeCET,TemperatureF,Dew PointF,Humidity,Sea Level PressureIn,VisibilityMPH,Wind Direction,Wind SpeedMPH,Gust SpeedMPH,PrecipitationIn,Events,Conditions,WindDirDegrees,DateUTC
12:15 AM,33.8,28.4,81,29.83,-9999.0,East,6.7,-,N/A,,Clear,90,2012-10-31 23:15:00
12:45 AM,33.8,28.4,81,29.83,-9999.0,East,6.7,-,N/A,,Clear,80,2012-10-31 23:45:00
1:15 AM,33.8,30.2,87,29.80,-9999.0,East,8.9,-,N/A,,Clear,80,2012-11-01 00:15:00
1:45 AM,33.8,30.2,87,29.77,-9999.0,East,8.9,-,N/A,,Clear,80,2012-11-01 00:45:00
2:15 AM,33.8,30.2,87,29.77,-9999.0,East,8.9,-,N/A,,Clear,80,2012-11-01 01:15:00
2:45 AM,33.8,30.2,87,29.74,-9999.0,East,8.9,-,N/A,,Clear,80,2012-11-01 01:45:00
3:15 AM,35.6,30.2,81,29.74,-9999.0,East,8.9,-,N/A,,Clear,80,2012-11-01 02:15:00
3:45 AM,35.6,30.2,81,29.71,-9999.0,East,8.9,-,N/A,,Clear,80,2012-11-01 02:45:00
4:15 AM,35.6,30.2,81,29.71,-9999.0,ENE,8.9,-,N/A,,Clear,70,2012-11-01 03:15:00
4:45 AM,35.6,30.2,81,29.68,-9999.0,ENE,8.9,-,N/A,,Clear,60,2012-11-01 03:45:00
5:15 AM,35.6,32.0,87,29.68,-9999.0,ENE,8.9,-,N/A,,Clear,60,2012-11-01 04:15:00
5:45 AM,-9999,-9999,N/A,-9999,3.1,East,13.4,-,N/A,Rain,Rain,100,2012-11-01 04:45:00
6:15 AM,37.4,32.0,81,29.65,-9999.0,East,11.2,-,N/A,,Clear,80,2012-11-01 05:15:00
6:45 AM,37.4,32.0,81,29.62,-9999.0,East,11.2,-,N/A,,Clear,80,2012-11-01 05:45:00
7:15 AM,37.4,32.0,81,29.62,-9999.0,East,13.4,-,N/A,,Clear,80,2012-11-01 06:15:00
7:45 AM,39.2,32.0,75,29.62,6.2,East,11.2,-,N/A,,Overcast,80,2012-11-01 06:45:00
8:15 AM,41.0,33.8,76,29.59,6.2,East,11.2,-,N/A,,Overcast,80,2012-11-01 07:15:00
8:20 AM,41.0,33.8,76,29.59,6.2,East,11.2,-,N/A,Rain,Light Rain,80,2012-11-01 07:20:00
8:45 AM,-9999,-9999,N/A,-9999,6.2,East,11.2,-,N/A,,Overcast,90,2012-11-01 07:45:00
9:15 AM,41.0,37.4,87,29.59,6.2,East,13.4,-,N/A,Rain,Light Rain,90,2012-11-01 08:15:00
9:45 AM,42.8,39.2,87,29.56,6.2,East,13.4,-,N/A,Rain,Light Rain,90,2012-11-01 08:45:00
10:02 AM,44.6,39.2,81,29.56,-9999.0,East,11.2,-,N/A,,Clear,90,2012-11-01 09:02:00
10:15 AM,44.6,41.0,87,29.56,-9999.0,East,11.2,-,N/A,,Clear,90,2012-11-01 09:15:00
10:45 AM,46.4,42.8,87,29.53,-9999.0,East,11.2,-,N/A,,Clear,90,2012-11-01 09:45:00
10:58 AM,46.4,42.8,87,29.53,6.2,East,11.2,-,N/A,Rain,Light Rain,100,2012-11-01 09:58:00
11:15 AM,46.4,44.6,93,29.53,6.2,East,8.9,-,N/A,Rain,Light Rain,90,2012-11-01 10:15:00
11:32 AM,51.8,46.4,82,29.50,-9999.0,ESE,8.9,-,N/A,,Clear,120,2012-11-01 10:32:00
11:45 AM,-9999,-9999,N/A,-9999,5.0,East,8.9,-,N/A,Rain,Rain,100,2012-11-01 10:45:00
12:12 PM,48.2,44.6,87,29.50,6.2,East,8.9,-,N/A,Rain,Light Rain Showers,90,2012-11-01 11:12:00
12:15 PM,48.2,44.6,87,29.50,6.2,East,8.9,-,N/A,Rain,Light Rain Showers,90,2012-11-01 11:15:00
12:45 PM,48.2,44.6,87,29.50,6.2,East,11.2,-,N/A,Rain,Light Rain Showers,90,2012-11-01 11:45:00
1:06 PM,48.2,46.4,93,29.50,6.2,East,8.9,-,N/A,,Overcast,90,2012-11-01 12:06:00
1:15 PM,48.2,46.4,93,29.50,6.2,East,8.9,-,N/A,,Overcast,90,2012-11-01 12:15:00
1:25 PM,48.2,46.4,93,29.50,6.2,East,8.9,-,N/A,Rain,Light Rain Showers,90,2012-11-01 12:25:00
1:45 PM,48.2,46.4,93,29.47,6.2,East,8.9,-,N/A,,Overcast,90,2012-11-01 12:45:00
2:15 PM,50.0,46.4,87,29.47,6.2,East,6.7,-,N/A,,Overcast,90,2012-11-01 13:15:00
2:42 PM,50.0,48.2,94,29.47,6.2,East,6.7,-,N/A,Rain,Light Rain,90,2012-11-01 13:42:00
2:45 PM,-9999,-9999,N/A,-9999,6.2,East,8.9,-,N/A,,Mostly Cloudy,90,2012-11-01 13:45:00
3:15 PM,51.8,48.2,88,29.47,6.2,East,8.9,-,N/A,,Mostly Cloudy,100,2012-11-01 14:15:00
3:45 PM,51.8,48.2,88,29.47,6.2,East,8.9,-,N/A,,Mostly Cloudy,100,2012-11-01 14:45:00
4:15 PM,51.8,48.2,88,29.47,6.2,ESE,8.9,-,N/A,,Mostly Cloudy,120,2012-11-01 15:15:00
4:45 PM,51.8,48.2,88,29.47,6.2,ESE,8.9,-,N/A,,Overcast,110,2012-11-01 15:45:00
5:15 PM,51.8,48.2,88,29.47,6.2,ESE,6.7,-,N/A,,Overcast,110,2012-11-01 16:15:00
5:45 PM,-9999,-9999,N/A,-9999,6.2,ESE,6.7,-,N/A,,Mostly Cloudy,120,2012-11-01 16:45:00
6:15 PM,53.6,48.2,82,29.50,6.2,SSE,8.9,-,N/A,,Overcast,160,2012-11-01 17:15:00
6:45 PM,53.6,48.2,82,29.50,6.2,South,8.9,-,N/A,Rain,Light Rain,170,2012-11-01 17:45:00
7:15 PM,51.8,48.2,88,29.50,6.2,South,11.2,-,N/A,Rain,Light Rain,180,2012-11-01 18:15:00
7:45 PM,51.8,48.2,88,29.50,6.2,South,8.9,-,N/A,Rain,Light Rain,180,2012-11-01 18:45:00
8:15 PM,51.8,50.0,94,29.50,6.2,South,8.9,-,N/A,Rain,Light Rain,190,2012-11-01 19:15:00
8:33 PM,51.8,50.0,94,29.50,-9999.0,South,8.9,-,N/A,,Clear,180,2012-11-01 19:33:00
8:45 PM,-9999,-9999,N/A,-9999,1.9,South,8.9,-,N/A,,Overcast,180,2012-11-01 19:45:00
9:15 PM,51.8,48.2,88,29.53,-9999.0,South,11.2,-,N/A,,Clear,190,2012-11-01 20:15:00
9:45 PM,51.8,48.2,88,29.53,-9999.0,South,11.2,-,N/A,,Clear,190,2012-11-01 20:45:00
10:15 PM,51.8,48.2,88,29.53,-9999.0,SSW,11.2,-,N/A,,Clear,200,2012-11-01 21:15:00
10:45 PM,53.6,50.0,88,29.56,-9999.0,SSW,8.9,-,N/A,,Clear,200,2012-11-01 21:45:00
11:15 PM,51.8,48.2,88,29.56,-9999.0,SSW,8.9,-,N/A,,Clear,200,2012-11-01 22:15:00
11:45 PM,-9999,-9999,N/A,-9999,1.9,North,-9999.0,-,N/A,,Overcast,0,2012-11-01 22:45:00